Tracking 19644 objects as of 24-Apr-2019
HD Live streaming from Space Station
objects crossing your sky now

SL-18 DEB


SL-18 DEB is no longer on orbit


NORAD ID: 28964
Int'l Code: 1993-014AR
Perigee: N/A
Apogee: N/A
Inclination: N/A
Period: N/A
Semi major axis: N/A
RCS: N/A
Launch date: March 25, 1993
Source: Commonwealth of Independent States (former USSR) (CIS)
Launch site: PLESETSK MISSILE AND SPACE COMPLEX (PKMTR)
Decay date: 2011-11-27

Note: This is SATELLITE DEBRIS
aabbcc
Your satellite tracking list
Your tracking list is empty




NASA's NSSDC Master Catalog

Two Line Element Set (TLE):
1 28964U 93014AR  11289.44067559  .00250605  00000-0  14898-1 0  9996
2 28964 075.7357 333.2296 0069542 333.0894 023.7572 15.08057913340876
Source of the keplerian elements: AFSPC